Regional Weather Roundup
Issued by NWS

Home | Current Version | Previous Version | Text Only | Print | Product List | Glossary Off
Versions: 1 2 3 4 5 6 7 8 9 10 11 12 13 14 15 16 17 18 19 20 21 22 23 24 25 26 27 28 29 30 31 32 33 34 35 36 37 38 39 40 41 42 43 44 45 46 47 48 49 50

000
ASUS43 KLSX 281807
RWRMO

WEATHER SUMMARY FOR MISSOURI
NATIONAL WEATHER SERVICE SPRINGFIELD MO
100 PM CDT SAT MAR 28 2015

NOTE: "FAIR" INDICATES FEW OR NO CLOUDS BELOW 12,000 FEET WITH NO
       SIGNIFICANT WEATHER AND/OR OBSTRUCTIONS TO VISIBILITY.
       CURRENT SKY AND/OR WEATHER CONDITIONS ARE NOT AVAILABLE FOR
       CHILLICOTHE AND FARMINGTON.

MOZ001>031-035>038-043-044-053-054-281900-
...NORTHERN AND WESTERN MISSOURI...

CITY           SKY/WX    TMP DP  RH WIND       PRES   REMARKS
KANSAS CTY INT CLOUDY    48  31  51 SE12G23   30.17F
6HR MIN TEMP:  36; 6HR MAX TEMP:  48;

KANSAS C DTWN  CLOUDY    48  29  47 SE13      30.17F
6HR MIN TEMP:  38; 6HR MAX TEMP:  49;

LEE`S SUMMIT   CLOUDY    46  29  51 SE15G22   30.18F
6HR MIN TEMP:  36; 6HR MAX TEMP:  47;

ST JOSEPH      SUNNY     48  30  49 SE10G21   30.18F
6HR MIN TEMP:  35; 6HR MAX TEMP:  48;

CHILLICOTHE      N/A     44  30  57 SE14G23   30.25S
6HR MIN TEMP:  33; 6HR MAX TEMP:  44;

KIRKSVILLE     SUNNY     43  20  39 SE9G18    30.26F
6HR MIN TEMP:  29; 6HR MAX TEMP:  44;


$$
MOZ066>068-077>081-088>096-101>105-281900-
...SOUTHWEST MISSOURI...

CITY           SKY/WX    TMP DP  RH WIND       PRES   REMARKS
SPRINGFIELD    CLOUDY    41  27  57 SE20      30.18F
6HR MIN TEMP:  39; 6HR MAX TEMP:  41; 6HR PCP: TRACE;

JOPLIN         SUNNY     55  34  45 E14       30.12S
6HR MIN TEMP:  41; 6HR MAX TEMP:  55;


$$
MOZ032>034-039>042-045>050-055>058-069>072-281900-
...CENTRAL MISSOURI...

CITY           SKY/WX    TMP DP  RH WIND       PRES   REMARKS
COLUMBIA       MOSUNNY   43  26  51 SE14G20   30.25F
6HR MIN TEMP:  32; 6HR MAX TEMP:  44; 6HR PCP: TRACE;

JEFFERSON CITY MOSUNNY   42  27  55 SE12      30.27F
6HR MIN TEMP:  32; 6HR MAX TEMP:  43; 6HR PCP: TRACE;

ROLLA          CLOUDY    40  28  62 E13       30.24F
6HR MIN TEMP:  31; 6HR MAX TEMP:  40; 6HR PCP: TRACE;

SEDALIA        MOSUNNY   46  31  55 E10       30.22F
6HR MIN TEMP:  35; 6HR MAX TEMP:  47;

WHITEMAN AFB   SUNNY     45  33  61 S10       30.20F
WARRENSBURG    CLOUDY    46  32  57 SE9       30.20F
OSAGE BEACH    CLOUDY    41  30  65 SE10      30.24F

$$
MOZ051-052-059>065-281900-
...EAST CENTRAL MISSOURI...

CITY           SKY/WX    TMP DP  RH WIND       PRES   REMARKS
ST LOUIS INTL  SUNNY     40  16  37 VRB3      30.33S
6HR MIN TEMP:  30; 6HR MAX TEMP:  41;

SPIRIT OF STL  SUNNY     43  18  36 VRB5      30.31F
6HR MIN TEMP:  26; 6HR MAX TEMP:  43;

ST CHARLES     SUNNY     40  20  44 CALM      30.33F
6HR MIN TEMP:  28; 6HR MAX TEMP:  40;


$$
MOZ072>076-082>087-097>100-106>115-281900-
...SOUTH CENTRAL AND SOUTHEAST MISSOURI...

CITY           SKY/WX    TMP DP  RH WIND       PRES   REMARKS
CAPE GIRARDEAU SUNNY     41  21  44 SE5       30.33F
6HR MIN TEMP:  27; 6HR MAX TEMP:  42;

FARMINGTON     MOSUNNY   43  21  42 NW3       30.32S
6HR MIN TEMP:  27; 6HR MAX TEMP:  43;

POPLAR BLUFF   PTSUNNY   42  26  53 S8        30.31F
6HR MIN TEMP:  32; 6HR MAX TEMP:  42;

WEST PLAINS    CLOUDY    33  30  88 SE7       30.27F WCI  27
6HR MIN TEMP:  31; 6HR MAX TEMP:  34; 6HR PCP:  0.07;


$$



USA.gov is the U.S. government's official web portal to all federal, state and local government web resources and services.